Welcome to the New NWS' Forecast!
Most changes are behind the scenes, but click here for differences you might notice.

Regional Weather Roundup (RWR)

Issued by Gray - Portland, ME (GYX)

                            
711 
ASUS41 KGYX 140810
RWRGYX
WEATHER ROUNDUP FOR MAINE AND NEW HAMPSHIRE
NATIONAL WEATHER SERVICE GRAY ME
300 AM EST THU DEC 14 2017

MEZ002-005-006-010-012-015-018-020-021-024-026-027-029-140900-
MAINE
  
CITY           SKY/WX    TMP DP  RH WIND       PRES   REMARKS
PORTLAND       CLOUDY    17   7  64 W14       29.52R WCI   3          
SANFORD        CLOUDY    15   8  73 SW9       29.55R                  
BAR HARBOR     CLEAR     16   7  67 W10G23    29.43F WCI   4          
WISCASSET      CLOUDY    16   9  74 VRB6      29.50R                  
ROCKLAND       CLOUDY    17   8  67 W12       29.46S WCI   4          
FRYEBURG       CLOUDY    13   3  64 SW5       29.48R                  
LEWISTONAUBURN CLOUDY    13   6  74 W7        29.47S                  
AUGUSTA        CLOUDY    14   4  64 W12       29.45S WCI   0          
WATERVILLE     CLOUDY    13   4  67 W12       29.39S WCI  -1          
BANGOR         CLOUDY    12   4  70 SW8       29.42R                  
GREENVILLE       N/A      3  -2  79 VRB3      29.25R                  
MILLINOCKET    CLOUDY     9   0  67 W12G29    29.35R WCI  -6          
HOULTON        CLEAR      8   2  76 SW6       29.23R                  
PRESQUE ISLE   CLEAR      7   1  76 SW10      29.19R WCI  -8          
FRENCHVILLE    MIX PCPN   4  -1  80 W22G33    29.07R WCI -18          
CARIBOU        MOCLDY     8  -1  66 SW13G20   29.15R WCI  -8          
$$

NHZ002-005-008-009-011-012-014-140900-
NEW HAMPSHIRE
  
CITY           SKY/WX    TMP DP  RH WIND       PRES   REMARKS
PORTSMOUTH     MOCLDY    20  10  66 SW10      29.55R WCI   8          
ROCHESTER      CLOUDY    17  10  74 CALM      29.54R                  
NASHUA         CLOUDY    19  11  70 W8        29.58R                  
MANCHESTER     CLOUDY    20   9  62 VRB6      29.56R                  
CONCORD        CLOUDY    19   8  62 SW7       29.55R                  
LACONIA        CLOUDY    15   6  67 W13       29.52R WCI   1          
PLYMOUTH       MOCLDY    12   3  67 NW5       29.53R                  
BERLIN         CLOUDY     8  -1  66 VRB6      29.41S                  
WHITEFIELD     CLOUDY     7   2  80 SW3       29.45F                  
JAFFREY        CLOUDY    16   9  74 SW6       29.52S                  
KEENE          CLOUDY    17  10  74 S6        29.56F                  
LEBANON        CLOUDY    11   6  81 N3        29.53R                  
MT WASHINGTON  BLWGSNOW -11 -11 100 W82G90      N/A  VSB 1/16WCI -53  
$$

VTZ005-007-008-140900-
VERMONT
  
CITY           SKY/WX    TMP DP  RH WIND       PRES   REMARKS
ST JOHNSBURY     N/A      4   3  96 MISG      29.48S                  
MONTPELIER     CLOUDY     5  -1  76 CALM      29.50R                  
BURLINGTON     CLOUDY    10   2  69 CALM      29.55S                  
$$

MAZ007-012-024-CTZ003-RIZ002-NYZ038-NYZ072-140900-
SOUTHERN NEW ENGLAND AND NY
  
CITY           SKY/WX    TMP DP  RH WIND       PRES   REMARKS
BOSTON         CLOUDY    23   8  52 W16       29.61R WCI  10          
WORCESTER      CLOUDY    16   5  62 SW12      29.54F WCI   3          
NANTUCKET      CLOUDY    30  18  60 W15G25    29.63S WCI  19          
HARTFORD       FLURRIES  21  14  74 SW5       29.60F                  
ALBANY         CLOUDY    20   6  55 CALM      29.59F                  
NEW YORK CITY  LGT SNOW  25  21  85 E5        29.59F FOG              
$$

ANZ081-ANZ082-ANZ150-NHZ014-MEZ023>029-140900-
COASTAL MARINE OBSERVATIONS
  
STATION/POSITION TIME  TEMP    WIND        PRES    WAVE
                       AIR SEA DIR/SP/G            HT/PER
                 (UTC) (F)     (DEG/KT/KT) (MB)    (FT/S)
MOUNT DESERT ROC 0800   27     250/ 30/ 34  996.9R
MATINICUS ROCK   0700   26     260/ 32/ 36  996.5R
ISLE OF SHOALS   0700   22     260/ 22/ 26 1000.2R
JEFFREYS LEDGE   0736      48                N/A     7/ 6
GEORGES BANK BUO 0650   42 51              1001.5   20/10
$$

.............KEY..............
   WCI - WIND CHILL
   TC  - TEMPERATURE IN CELSIUS
   VSB - VISIBILITY IN MILES
   HX  - HEAT INDEX
   FAIR- INDICATES FEW OR NO CLOUDS BELOW 12,000 FT, WITH NO 
         SIGNIFICANT WEATHER AND/OR OBSTRUCTIONS TO VISIBILITY.